Location: Normandy Village
(37.8755°N, 122.2655°W)
Time: 13:49:20
(UTC+00:00)

Cosmos 1697 Rocket - Pass Details

Date: 22 September 2019
Orbit: 831 x 844 km, 71.0° (Epoch: 20 October)

Event Time Altitude Azimuth Distance (km) Brightness Sun altitude
Rises 13:18:18 0° 196° (SSW) 3,376 5.6 -8.4°
Reaches altitude 10° 13:20:44 10° 195° (SSW) 2,447 4.9 -7.9°
Maximum altitude 13:26:20 76° 110° (ESE) 869 3.0 -6.8°
Drops below altitude 10° 13:32:00 10° 25° (NNE) 2,469 5.6 -5.7°
Sets 13:34:27 0° 24° (NNE) 3,409 6.3 -5.2°
